ARIANE 42P DEB, 44510

Orbit data source: Space-Track

ARIANE 42P DEB, 44510 is space debris in LEO originally from a launch on Mon, 10 Aug 1992 UTC launched from the French Guiana (FRGUI). Debris objects in space refer to the collection of defunct objects orbiting the Earth. Examples of debris include non-operational satellites, rocket bodies, and fragments generated from explosions, collisions, or faulty payload assembly.

Loading next visibility...
Identifier
44510, 1992-052H
Orbit
LEO
Country
Flag of FRFR
Related business
Manufacturer
ArianeGroup
Mission
Spacecraft
Bus & Motor
Unknown
Mass
Unknown
Launch date (UTC)
1992-08-10 (33 years ago)
Launch vehicle
Unknown
Launch site
French Guiana (FRGUI)
Object type
Payload
Rocket body
Debris
Shape & HBR
Unknown shape, 0.1 m
Radar Cross Section
Small (<0.1 m²)

Expand to show TLE details & history
Last TLE update: 8 hours ago

TLE from 8 hours ago
0 ARIANE 42P DEB
1 44510U 92052H   25346.95061182  .00002275  00000-0  98965-2 0  9999
2 44510  66.0602 325.5661 0075440  23.7986 336.6488 12.81785851295728
Epoch: 2025-12-12T22:48Z
TLE epoch observation values (Epoch: 2025-12-12T22:48:52.861Z)
Latitude
-0.00008°
Longitude
-98.53907°
Altitude
1,282.858 km
Speed
7.24 km/s
True Right ascension
21h 42m 15s
True Declination
0° 00' 00"
Sunlit
Object was in daylight at epoch
Visualization orbit readout
Latitude
Unknown
Longitude
Unknown
Altitude
Unknown
Speed
Unknown
Apparent Right ascension
Unknown
Apparent Declination
Unknown
Sunlit
N/A
Visualization observer readout
Local Sidereal Time
05:22:31
Azimuth
Unknown
Elevation
Unknown
Doppler factor
Unknown
Orbital elements
Apogee altitude
1,391.03 km
Perigee altitude
1,274.686 km
Semi-major axis
7,710.995 km
Eccentricity
0.00754
Inclination
66.0602°
RAAN
325.5661°
Arg. of periapsis
23.7986°
True anomaly
336.30316°
Mean anomaly
336.6488°
Eccentric anomaly
336.47628°
Mean motion
3.20537 °/min
Orbital period
112.31 mins
BSTAR
0.0098965
Loading maneuver chart data...
Computing Atmospheric mass density...
Loading historical data...
Loading historical data...
Loading historical data...
Loading historical data...
Loading historical data...
Loading historical data...
Loading historical data...

Documentation

Showing up to 5 results
|